Weather History for Spirit of St Louis, MO

Change the Weather History Date:

Sunday, November 18, 2012

  Actual Average Record
Temperature  
Mean Temperature 44 °F -  
Max Temperature 63 °F 52 °F 73 °F (1999)
Min Temperature 25 °F 32 °F 18 °F (2000)
Degree Days  
Heating Degree Days 21    
Moisture  
Dew Point 29 °F    
Average Humidity 64    
Maximum Humidity 92    
Minimum Humidity 21    
Precipitation  
Precipitation 0.00 in - - ()
Sea Level Pressure  
Sea Level Pressure 30.35 in    
Wind  
Wind Speed 1 mph (SE)    
Max Wind Speed 8 mph    
Max Gust Speed -    
Visibility 8 miles    
Events      
Averages and records for this station are not official NWS values.
T = Trace of Precipitation, MM = Missing Value Source: NWS Daily Summary

Daily Weather History Graph

Daily Weather History Graph

Search for Another Location

Airport:

Trip Planner

Search our weather history database for the weather conditions in past years. The results will help you decide how hot, cold, wet, or windy it might be!

Date:

Astronomy

Nov. 18, 2012 Rise Set
Actual Time 6:48 AM CST 4:46 PM CST
Civil Twilight 6:19 AM CST 5:15 PM CST
Nautical Twilight 5:47 AM CST 5:47 PM CST
Astronomical Twilight 5:16 AM CST 6:19 PM CST
Moon 11:16 AM CST (11/18) 10:05 PM CST (11/18)
Length of Visible Light 10h 55m
Length of Day
9h 58m
Waxing Crescent, 30% of the Moon is Illuminated
Nov 18
Waxing Crescent
Nov 20
First Quarter
Nov 28
Full
Dec 6
Last Quarter
Dec 13
New

Hourly Weather History & Observations

Time (CST) Temp. Windchill Dew Point Humidity Pressure Visibility Wind Dir Wind Speed Gust Speed Precip Events Conditions
12:54 AM 30.0 °F - 27.0 °F 88% 30.40 in 4.0 mi Calm Calm - N/A   Clear
1:54 AM 28.9 °F - 26.1 °F 89% 30.40 in 5.0 mi Calm Calm - N/A   Clear
2:54 AM 28.0 °F - 25.0 °F 88% 30.40 in 6.0 mi Calm Calm - N/A   Clear
3:54 AM 27.0 °F - 24.1 °F 89% 30.40 in 5.0 mi Calm Calm - N/A   Clear
4:54 AM 27.0 °F - 25.0 °F 92% 30.40 in 4.0 mi Calm Calm - N/A   Clear
5:54 AM 26.1 °F - 24.1 °F 92% 30.40 in 5.0 mi Calm Calm - N/A   Clear
6:54 AM 25.0 °F - 23.0 °F 92% 30.41 in 6.0 mi Calm Calm - N/A   Clear
7:54 AM 30.0 °F - 27.0 °F 88% 30.40 in 7.0 mi Calm Calm - N/A   Clear
8:54 AM 37.9 °F - 32.0 °F 79% 30.41 in 8.0 mi Calm Calm - N/A   Partly Cloudy
9:54 AM 48.9 °F - 37.0 °F 64% 30.40 in 10.0 mi Calm Calm - N/A   Clear
10:54 AM 55.9 °F - 33.1 °F 42% 30.39 in 10.0 mi SE 4.6 mph - N/A   Clear
11:54 AM 59.0 °F - 33.1 °F 38% 30.35 in 10.0 mi Calm Calm - N/A   Scattered Clouds
12:54 PM 62.1 °F - 26.1 °F 25% 30.33 in 10.0 mi SSE 3.5 mph - N/A   Clear
1:54 PM 63.0 °F - 21.9 °F 21% 30.31 in 10.0 mi South 6.9 mph - N/A   Scattered Clouds
2:28 PM 62.6 °F - 32.0 °F 32% 30.28 in 10.0 mi ESE 5.8 mph - N/A   Scattered Clouds
2:54 PM 62.1 °F - 28.9 °F 29% 30.29 in 10.0 mi ESE 8.1 mph - N/A   Scattered Clouds
3:54 PM 60.1 °F - 34.0 °F 38% 30.29 in 10.0 mi East 8.1 mph - N/A   Mostly Cloudy
4:54 PM 51.1 °F - 34.0 °F 52% 30.30 in 10.0 mi East 5.8 mph - N/A   Scattered Clouds
5:54 PM 46.0 °F 44.8 °F 32.0 °F 58% 30.31 in 10.0 mi ESE 3.5 mph - N/A   Clear
6:54 PM 51.1 °F - 30.9 °F 46% 30.32 in 10.0 mi SE 3.5 mph - N/A   Scattered Clouds
7:54 PM 51.1 °F - 30.9 °F 46% 30.32 in 10.0 mi SSE 4.6 mph - N/A   Clear
8:54 PM 39.9 °F - 32.0 °F 73% 30.33 in 10.0 mi Calm Calm - N/A   Scattered Clouds
9:54 PM 37.9 °F - 32.0 °F 79% 30.32 in 10.0 mi Calm Calm - N/A   Clear
10:54 PM 37.9 °F - 32.0 °F 79% 30.31 in 10.0 mi Calm Calm - N/A   Clear
11:54 PM 37.9 °F 34.4 °F 33.1 °F 83% 30.29 in 10.0 mi East 4.6 mph - N/A   Clear